Weather History for LHPP - February, 2013

Change the Weather History Date:

Saturday, February 9, 2013

  Actual Average Record
Temperature  
Mean Temperature 28 °F -  
Max Temperature 31 °F 44 °F - ()
Min Temperature 26 °F 31 °F - ()
Degree Days  
Heating Degree Days 36    
Moisture  
Dew Point 25 °F    
Average Humidity 81    
Maximum Humidity 86    
Minimum Humidity 66    
Precipitation  
Precipitation 0.00 in 0.04 in - ()
Sea Level Pressure  
Sea Level Pressure 29.90 in    
Wind  
Wind Speed 5 mph ()    
Max Wind Speed 10 mph    
Max Gust Speed -    
Visibility 5.4 miles    
Events Snow    
T = Trace of Precipitation, MM = Missing Value Source: Averaged Metar Reports

Daily Weather History Graph

Daily Weather History Graph

Search for Another Location

Airport or City:

Trip Planner

Search our weather history database for the weather conditions in past years. The results will help you decide how hot, cold, wet, or windy it might be!

Date:

Astronomy

Feb. 09, 2013 Rise Set
Actual Time 6:58 AM CET 5:04 PM CET
Civil Twilight 6:27 AM CET 5:35 PM CET
Nautical Twilight 5:52 AM CET 6:10 PM CET
Astronomical Twilight 5:17 AM CET 6:45 PM CET
Moon 5:58 AM CET (2/9) 4:27 PM CET (2/9)
Length of Visible Light 11h 08m
Length of Day
10h 05m
Waning Crescent, 1% of the Moon is Illuminated
Feb 9
Waning Crescent
Feb 10
New
Feb 17
First Quarter
Feb 25
Full
Mar 4
Last Quarter

Hourly Weather History & Observations

Time (CET) Temp. Windchill Dew Point Humidity Pressure Visibility Wind Dir Wind Speed Gust Speed Precip Events Conditions
12:45 AM 28.4 °F 22.2 °F 21.2 °F 74% 29.86 in - NNW 5.8 mph - N/A   Clear
1:00 AM 28 °F - 21 °F 66% 29.89 in 31 mi NNW 6.7 mph - -   Partly Cloudy
1:45 AM 28.4 °F 20.4 °F 21.2 °F 74% 29.86 in - North 8.1 mph - N/A   Clear
2:45 AM 26.6 °F 18.2 °F 21.2 °F 80% 29.86 in - North 8.1 mph - N/A   Clear
3:45 AM 28.4 °F 19.1 °F 23.0 °F 80% 29.83 in - NNE 10.4 mph - N/A   Clear
4:45 AM 28.4 °F 22.2 °F 24.8 °F 86% 29.86 in - North 5.8 mph - N/A   Clear
5:15 AM 28.4 °F 21.2 °F 23.0 °F 80% 29.86 in - NNE 6.9 mph - N/A   Clear
5:45 AM 28.4 °F 20.4 °F 24.8 °F 86% 29.86 in - North 8.1 mph - N/A   Clear
6:00 AM - - - N/A% - - North 8.1 mph - N/A   Overcast
6:15 AM 28.4 °F 21.2 °F 24.8 °F 86% 29.86 in - NNE 6.9 mph - N/A   Clear
6:45 AM 28.4 °F 22.2 °F 23.0 °F 80% 29.86 in - North 5.8 mph - N/A   Clear
7:00 AM 29 °F - 24 °F 73% 29.90 in 9 mi North 6.7 mph - -   Partly Cloudy
7:15 AM 28.4 °F 22.2 °F 24.8 °F 86% 29.86 in - NNE 5.8 mph - N/A   Clear
7:45 AM 28.4 °F 22.2 °F 24.8 °F 86% 29.89 in - NNE 5.8 mph - N/A   Clear
8:15 AM 28.4 °F 24.6 °F 23.0 °F 80% 29.89 in - NNE 3.5 mph - N/A   Clear
8:45 AM 30.2 °F 24.3 °F 24.8 °F 80% 29.89 in - NNE 5.8 mph - N/A   Clear
9:00 AM - - - N/A% - 4.3 mi NNE 6.9 mph - N/A   Unknown
9:15 AM 30.2 °F 24.3 °F 24.8 °F 80% 29.89 in - NE 5.8 mph - N/A   Clear
9:45 AM 30.2 °F 22.6 °F 24.8 °F 80% 29.89 in - NE 8.1 mph - N/A   Clear
10:15 AM 30.2 °F 24.3 °F 23.0 °F 75% 29.89 in - NE 5.8 mph - N/A   Clear
10:45 AM 30.2 °F 24.3 °F 23.0 °F 75% 29.89 in - ENE 5.8 mph - N/A   Clear
11:15 AM 30.2 °F 24.3 °F 23.0 °F 75% 29.89 in - ENE 5.8 mph - N/A   Clear
11:29 AM 30.2 °F 24.3 °F 23.0 °F 75% 29.95 in 2.5 mi East 5.8 mph - N/A Snow Snow Grains
11:45 AM 30.2 °F 25.4 °F 24.8 °F 80% 29.92 in 2.2 mi East 4.6 mph - N/A Snow Snow Grains
11:52 AM 30.2 °F - 24.8 °F 80% 29.92 in - North - - N/A   Unknown
12:00 PM - - - N/A% - 3.7 mi NE 6.9 mph - N/A   Unknown
12:15 PM 30.2 °F 25.4 °F 26.6 °F 86% 29.89 in 2.2 mi ENE 4.6 mph - N/A Snow Snow Grains
12:32 PM 30.2 °F 26.7 °F 26.6 °F 86% 29.95 in 3.1 mi ENE 3.5 mph - N/A Snow Snow Grains
12:45 PM 30.2 °F 26.7 °F 26.6 °F 86% 29.89 in 6.2 mi ENE 3.5 mph - N/A Snow Snow Grains
1:00 PM 30 °F - 26 °F 78% 29.94 in 6 mi ENE 4.5 mph - - Snow Snow Grains
1:15 PM 30.2 °F - 26.6 °F 86% 29.89 in 6.2 mi ENE 2.3 mph - N/A   Overcast
1:45 PM 30.2 °F - 26.6 °F 86% 29.89 in 6.2 mi ENE 2.3 mph - N/A Snow Light Snow
2:15 PM 32.0 °F - 26.6 °F 80% 29.89 in 6.2 mi East 2.3 mph - N/A   Mostly Cloudy
2:45 PM 32.0 °F 28.7 °F 24.8 °F 75% 29.89 in 6.2 mi ENE 3.5 mph - N/A   Mostly Cloudy
3:15 PM 32.0 °F 28.7 °F 24.8 °F 75% 29.92 in 6.2 mi East 3.5 mph - N/A   Mostly Cloudy
3:45 PM 30.2 °F - 26.6 °F 86% 29.92 in 6.2 mi North 2.3 mph - N/A   Overcast
4:15 PM 30.2 °F 26.7 °F 26.6 °F 86% 29.92 in 6.2 mi NNW 3.5 mph - N/A   Mostly Cloudy
4:45 PM 30.2 °F 26.7 °F 26.6 °F 86% 29.92 in 6.2 mi NW 3.5 mph - N/A   Mostly Cloudy
5:11 PM 30.2 °F 26.7 °F 26.6 °F 86% 29.98 in 5.0 mi NNW 3.5 mph - N/A   Mostly Cloudy
5:15 PM 30.2 °F 26.7 °F 26.6 °F 86% 29.92 in 5.0 mi NNW 3.5 mph - N/A   Mostly Cloudy
5:45 PM 30.2 °F - 26.6 °F 86% 29.92 in 5.0 mi NW 1.2 mph - N/A Snow Light Snow
6:15 PM 30.2 °F 22.6 °F 24.8 °F 80% 29.92 in 5.0 mi NNE 8.1 mph - N/A Snow Light Snow
6:45 PM 30.2 °F 22.6 °F 24.8 °F 80% 29.92 in 5.0 mi North 8.1 mph - N/A Snow Light Snow
7:00 PM 29 °F - 25 °F 79% 29.96 in 5 mi North 8.9 mph - - Snow Light Snow
7:15 PM 28.4 °F 22.2 °F 24.8 °F 86% 29.92 in 6.2 mi North 5.8 mph - N/A   Mostly Cloudy
7:45 PM 28.4 °F 22.2 °F 24.8 °F 86% 29.92 in 6.2 mi North 5.8 mph - N/A   Mostly Cloudy
8:15 PM 30.2 °F 25.4 °F 24.8 °F 80% 29.92 in 6.2 mi North 4.6 mph - N/A   Mostly Cloudy
8:45 PM 30.2 °F - 24.8 °F 80% 29.92 in 6.2 mi NE 2.3 mph - N/A   Overcast
9:45 PM 30.2 °F 25.4 °F 24.8 °F 80% 29.92 in 6.2 mi North 4.6 mph - N/A   Overcast
10:45 PM 30.2 °F 24.3 °F 24.8 °F 80% 29.92 in 6.2 mi North 5.8 mph - N/A   Overcast
11:45 PM 28.4 °F 22.2 °F 24.8 °F 86% 29.92 in 6.2 mi North 5.8 mph - N/A   Overcast